This is the latest recevied weather packets stored in our database for station/object KB1RMA-4. If no packets are shown the sender has not sent any weather packets the latest 10 day(s).
| Time | Temp. | Humidity | Pressure | Rain* | Wind** | Luminosity | Snow |
|---|---|---|---|---|---|---|---|
| 1787941622 | 28.89° C | 60% | 1014.9 hPa | 0 mm | - | 281 W/m² | - |
| 1787941322 | 28.89° C | 61% | 1014.9 hPa | 0 mm | - | 375 W/m² | - |
| 1787941022 | 28.89° C | 59% | 1015.1 hPa | 0 mm | - | 321 W/m² | - |
| 1787940722 | 28.33° C | 63% | 1015.1 hPa | 0 mm | - | 440 W/m² | - |
| 1787940420 | 27.78° C | 63% | 1015.2 hPa | 0 mm | - | 388 W/m² | - |
| 1787940120 | 27.78° C | 64% | 1015.2 hPa | 0 mm | - | 345 W/m² | - |
| 1787939814 | 27.22° C | 64% | 1015.2 hPa | 0 mm | - | 328 W/m² | - |
| 1787939513 | 27.22° C | 66% | 1015.4 hPa | 0 mm | - | 239 W/m² | - |
| 1787939208 | 27.22° C | 64% | 1015.4 hPa | 0 mm | - | 249 W/m² | - |
| 1787938902 | 27.78° C | 64% | 1015.3 hPa | 0 mm | - | 216 W/m² | - |
| 1787938602 | 27.22° C | 64% | 1015.4 hPa | 0 mm | - | 308 W/m² | - |
| 1787938298 | 27.78° C | 63% | 1015.4 hPa | 0 mm | - | 291 W/m² | - |
| 1787937993 | 27.78° C | 64% | 1015.2 hPa | 0 mm | - | 313 W/m² | - |
| 1787937688 | 27.78° C | 65% | 1015.4 hPa | 0 mm | - | 207 W/m² | - |
| 1787937384 | 27.78° C | 64% | 1015.4 hPa | 0 mm | - | 265 W/m² | - |
| 1787937080 | 27.78° C | 62% | 1015.4 hPa | 0 mm | - | 283 W/m² | - |
| 1787936780 | 27.22° C | 64% | 1015.3 hPa | 0 mm | - | 279 W/m² | - |
| 1787936474 | 27.22° C | 65% | 1015.4 hPa | 0 mm | - | 265 W/m² | - |
| 1787936174 | 27.22° C | 65% | 1015.5 hPa | 0 mm | - | 269 W/m² | - |
| 1787935869 | 27.22° C | 64% | 1015.5 hPa | 0 mm | - | 257 W/m² | - |
| 1787935565 | 27.22° C | 64% | 1015.5 hPa | 0 mm | - | 257 W/m² | - |
| 1787935261 | 27.22° C | 65% | 1015.5 hPa | 0 mm | - | 350 W/m² | - |
| 1787934957 | 27.22° C | 64% | 1015.6 hPa | 0 mm | - | 322 W/m² | - |
| 1787934652 | 26.67° C | 65% | 1015.5 hPa | 0 mm | - | 229 W/m² | - |
| 1787934351 | 27.22° C | 65% | 1015.8 hPa | 0 mm | - | 251 W/m² | - |
* Rain latest hour (hover to see other rain measurements)
** Current wind speed in m/s (hover to see current wind gust speed)